Wind_Speed
10 8 6 4 2 1 1 3 4 8 10 9 8 7 8 8 8 7 7 8 8 7 6 6 5 7 8 8 8 6 4 12 12 16 25 39 36 41 38 36 31 27 22
10 8 6 4 2 0 3 3 4 8 10 10 9 7 7 7 6 6 6 7 8 8 6 6 6 7 8 8 7 9 13 22 26 23 28 37 34 37 36 32 28 24 21
9 8 6 4 2 3 4 3 6 9 9 11 9 7 6 6 6 5 5 7 8 8 8 9 8 11 10 6 9 17 17 25 25 27 28 34 34 36 32 29 25 21 19
9 8 6 4 3 5 5 5 7 9 10 11 9 8 6 6 7 8 8 8 9 9 8 10 9 9 10 10 12 15 22 27 26 26 28 28 30 28 27 26 22 20 18
10 9 7 5 5 6 6 6 7 9 10 10 10 9 8 8 8 10 9 9 9 10 9 8 7 9 9 9 12 16 27 24 26 27 25 26 25 24 21 21 21 22 16
10 9 8 8 6 8 8 9 8 10 10 12 10 9 9 7 11 11 11 11 10 10 11 9 9 11 10 12 12 19 28 28 26 25 24 23 22 22 24 26 22 19 15
11 10 10 9 8 8 9 10 10 9 11 10 11 10 10 12 13 13 13 11 11 10 12 12 12 13 13 14 16 19 26 31 31 32 28 24 25 28 28 24 19 17 16
13 12 12 11 9 8 9 9 10 10 10 12 12 12 14 11 14 13 12 11 11 10 11 14 15 17 19 17 20 21 22 25 27 27 29 30 32 26 24 27 16 14 17
15 14 13 12 10 9 8 8 10 12 10 9 10 13 17 15 13 15 10 12 12 14 14 20 20 25 21 20 25 21 22 22 23 25 29 27 23 21 20 20 18 17 17
18 15 14 12 11 10 8 8 9 11 10 10 12 10 21 17 14 12 11 13 14 14 16 18 20 21 16 15 23 23 20 19 22 21 22 21 18 21 16 16 18 14 12
19 17 15 13 12 10 9 10 11 11 11 11 13 14 15 15 14 14 13 15 16 17 17 19 21 14 10 18 16 17 20 24 22 20 20 18 15 15 13 9 13 7 13
20 18 16 16 13 13 10 11 12 12 12 11 12 14 13 13 14 18 18 16 21 21 18 17 17 14 15 18 15 20 24 22 19 18 18 18 18 17 13 10 8 7 4
22 20 18 18 16 14 13 12 12 13 13 13 12 13 14 13 13 17 16 18 24 22 16 16 17 13 14 13 18 23 21 17 18 18 18 16 15 13 13 12 11 10 9
23 22 20 19 18 16 15 14 13 13 13 13 13 13 14 14 16 16 15 17 13 16 17 16 15 11 10 16 19 16 14 14 15 15 14 13 12 13 13 12 12 12 10
25 24 22 20 20 18 17 16 14 13 12 13 12 14 15 15 17 18 21 20 19 18 18 15 13 13 14 15 14 13 14 14 14 14 15 14 15 15 14 14 13 12 8
27 25 24 22 21 20 19 15 13 11 16 10 11 11 13 12 18 20 20 19 20 22 17 15 15 16 17 16 15 15 14 15 14 14 14 15 16 16 15 14 14 14 12
28 26 25 24 23 21 21 19 18 13 15 18 16 14 9 14 17 19 19 18 18 19 16 15 15 16 16 17 18 18 18 16 15 16 16 16 16 16 17 16 16 15 13
32 29 26 27 24 23 22 21 20 20 19 17 20 17 16 13 17 20 19 17 16 17 16 15 16 16 18 18 19 19 19 18 18 18 18 18 18 17 17 16 16 16 15
33 31 29 26 24 24 22 22 21 20 20 20 20 20 20 20 17 19 20 19 19 20 21 18 17 18 19 19 19 19 19 19 19 19 19 19 19 19 18 18 17 17 16
34 32 34 27 25 25 24 23 22 21 20 20 22 22 23 24 23 23 24 24 24 23 23 23 22 21 20 20 20 20 21 21 20 20 20 21 20 20 20 20 20 19 20
32 31 36 28 27 27 27 25 25 24 23 22 22 23 27 29 29 28 28 28 29 27 25 25 24 24 24 23 23 24 23 22 24 26 24 25 25 25 23 22 22 21 23
32 30 34 32 27 27 28 27 27 26 25 25 24 23 29 29 27 28 29 29 30 30 28 26 26 26 27 26 26 25 26 28 28 27 27 26 25 25 24 24 24 26 26
31 31 30 32 30 27 26 27 27 27 27 26 25 25 27 30 29 26 26 26 26 26 27 28 28 27 26 27 28 29 30 29 28 28 28 27 27 26 26 26 26 27 27
28 29 29 32 31 29 27 28 27 26 26 26 27 27 26 26 28 29 28 26 26 26 26 26 27 28 28 27 28 28 28 27 27 27 29 28 27 28 26 27 29 28 28
26 26 26 25 27 29 28 27 28 27 27 27 27 27 27 27 26 27 28 29 28 27 27 27 27 28 30 31 30 30 29 30 29 26 24 25 26 25 27 27 26 27 26
27 24 24 23 24 24 25 23 25 25 26 27 28 28 28 29 29 28 27 27 29 29 29 28 29 29 28 29 33 33 31 31 30 31 26 24 25 27 28 27 28 30 37
Wind_Direction
171 176 177 179 181 272 167 157 144 161 166 168 158 154 158 155 170 173 160 159 142 141 157 167 150 144 140 131 130 124 102 142 122 113 122 143 129 133 135 138 138 144 147
170 174 174 166 187 192 146 147 149 154 162 165 163 158 160 162 169 157 155 146 145 148 144 142 145 147 150 150 134 110 109 114 124 118 116 117 122 131 138 140 148 149 150
171 169 168 169 185 121 135 120 135 142 152 162 164 156 162 165 161 153 150 147 140 138 143 144 137 138 134 135 131 138 126 123 119 116 116 125 127 135 136 142 146 141 138
172 170 164 180 134 143 120 114 131 135 145 157 161 162 159 159 149 144 145 134 129 134 148 150 156 143 143 143 131 134 138 130 128 126 125 125 127 134 137 137 135 140 131
171 166 161 166 135 152 124 115 122 131 137 147 150 147 140 140 142 141 141 138 138 138 148 155 145 138 135 141 137 136 137 132 131 131 130 131 133 138 136 134 129 127 127
170 165 162 163 144 148 135 128 127 125 132 135 136 134 140 148 157 145 135 134 134 133 128 127 128 134 136 136 131 137 147 141 140 140 140 139 140 137 140 142 134 142 135
173 162 164 162 157 150 147 134 126 133 141 133 135 136 128 135 142 138 129 131 132 129 128 130 125 132 132 137 135 135 145 148 151 148 144 145 143 149 145 148 161 157 149
177 169 169 170 160 151 141 137 137 144 141 144 150 152 143 148 148 142 128 127 123 127 129 127 118 128 124 135 140 128 135 144 150 150 149 156 160 157 163 156 161 133 137
180 176 175 172 161 156 142 141 147 144 146 155 156 183 177 156 150 142 131 127 128 138 141 135 125 126 116 119 131 125 132 135 154 161 167 167 168 161 156 155 158 154 155
182 179 176 173 168 165 148 151 151 142 138 120 114 133 161 158 157 157 142 138 138 137 124 136 135 130 121 123 135 129 128 135 142 150 159 171 179 182 175 163 165 172 170
181 177 174 172 171 166 156 154 150 147 131 122 120 122 153 168 172 157 154 151 145 130 131 126 136 131 127 129 133 141 139 142 140 142 145 148 149 155 165 170 189 210 187
180 180 174 172 176 167 164 159 158 151 141 137 130 126 131 144 155 154 147 145 160 148 147 141 143 133 134 141 145 153 146 137 140 139 144 154 162 168 170 169 162 155 134
179 181 177 175 176 171 170 167 163 167 158 155 153 139 139 145 150 157 154 144 150 159 149 145 150 136 137 139 142 147 139 150 153 157 160 163 168 169 161 154 150 156 132
180 180 180 180 180 177 178 177 176 178 171 170 158 151 147 149 153 160 160 158 159 141 142 147 150 142 143 143 138 138 158 162 157 155 155 156 154 155 161 163 160 159 142
182 181 182 186 185 183 191 186 188 187 184 176 168 161 161 164 168 169 168 170 171 162 155 155 159 164 162 165 169 173 171 169 175 174 172 172 173 172 174 176 176 172 173
184 184 185 187 186 190 192 192 201 188 197 193 173 175 169 177 171 173 170 174 178 174 172 179 182 183 185 185 189 190 193 192 191 186 185 186 184 185 183 187 190 196 196
188 187 187 191 186 192 195 195 191 200 197 201 196 193 170 179 177 176 176 179 183 182 205 198 197 196 198 198 201 202 204 203 200 199 198 197 196 197 190 195 199 202 198
187 187 192 195 191 193 196 199 201 193 197 201 208 200 198 188 186 185 184 180 179 196 214 210 209 206 209 208 209 210 210 205 205 205 205 204 203 202 199 206 208 207 199
187 188 195 195 196 196 194 198 202 202 200 199 192 201 205 203 200 202 204 202 205 208 214 221 217 214 215 216 216 217 216 214 210 209 209 209 209 208 209 213 211 207 194
194 190 191 192 196 197 199 198 199 202 202 204 201 196 191 199 200 202 206 211 219 219 218 221 222 221 219 218 218 218 217 217 213 215 216 215 215 214 217 215 212 197 192
193 191 192 193 197 197 201 202 203 201 202 205 207 204 197 200 208 211 210 214 218 223 222 221 221 222 222 221 219 218 218 216 215 217 217 217 216 215 215 215 211 193 188
193 191 193 199 199 200 205 206 208 208 208 208 209 206 202 205 214 217 220 221 223 226 228 227 227 224 223 222 222 222 220 220 219 219 221 220 218 217 216 215 208 197 190
196 193 192 199 202 203 203 209 211 214 214 213 213 211 196 211 219 223 222 224 226 227 229 231 232 232 230 226 223 223 224 225 224 223 222 220 219 218 215 211 202 197 192
206 202 195 197 199 201 206 209 213 216 218 219 217 218 212 214 219 222 225 226 227 228 229 230 231 232 232 231 228 228 228 229 228 226 223 223 221 217 211 206 204 199 191
214 205 207 207 204 203 203 209 215 218 218 223 224 222 223 219 217 222 222 224 226 226 227 226 228 230 230 229 230 230 230 230 226 227 223 221 223 217 212 207 197 192 174
219 203 208 208 209 205 211 209 220 222 227 223 228 229 227 225 224 220 220 220 221 224 225 226 227 227 227 229 229 230 231 232 231 223 218 218 214 212 207 200 190 164 165
Height
725 727 728 728 729 730 729 729 730 732 733 735 736 737 738 739 741 743 744 745 747 749 751 751 753 753 754 756 758 759 758 759 764 772 771 781 787 794 804 812 820 826 833
724 726 727 728 729 729 729 730 730 731 733 735 736 738 739 740 742 743 744 746 749 751 752 753 754 756 756 757 759 761 763 764 766 771 777 783 792 800 808 815 823 829 833
722 724 726 728 728 729 730 730 731 732 733 735 737 739 741 742 744 745 746 748 750 752 753 755 755 757 758 760 762 764 767 770 773 775 784 793 800 807 814 821 827 831 837
721 723 725 727 728 729 730 731 732 733 735 736 738 740 742 744 746 747 748 750 752 754 755 757 758 759 760 761 763 766 770 774 779 783 790 797 804 813 818 823 829 833 838
720 722 725 727 729 730 730 732 734 734 736 738 740 742 744 745 748 749 750 751 754 755 757 758 759 760 762 764 766 769 772 777 782 788 795 801 808 815 820 826 830 835 842
720 722 725 727 728 730 731 733 735 736 738 739 742 743 745 747 748 750 752 753 755 757 758 759 761 763 766 768 770 773 775 779 785 790 797 803 811 816 823 828 833 838 841
719 722 725 727 729 730 730 733 736 738 738 741 743 745 747 749 750 752 753 755 757 759 761 762 764 766 769 770 774 777 779 783 788 792 798 806 812 818 823 830 835 837 840
718 721 724 726 728 730 731 733 736 738 740 741 744 746 748 751 752 755 756 758 760 761 763 765 767 769 772 773 777 781 784 788 793 797 802 808 813 819 823 829 833 836 841
715 720 723 725 729 731 733 735 736 738 741 743 745 746 748 752 754 757 758 761 763 765 767 769 772 773 776 778 780 784 788 792 798 803 807 813 818 822 826 831 835 836 840
713 718 722 725 729 732 735 736 737 739 741 743 745 746 749 753 756 758 760 762 765 767 770 773 776 778 781 783 785 788 791 796 801 806 811 817 819 824 827 830 833 834 835
710 716 721 725 729 732 736 738 738 739 742 744 747 750 752 755 757 760 762 763 767 769 773 776 779 782 784 787 790 792 794 798 803 808 812 817 821 825 829 830 832 832 835
708 714 719 724 728 733 736 738 740 741 744 746 748 752 755 758 759 761 764 767 768 771 776 778 781 784 786 789 791 794 797 801 805 809 814 819 822 825 828 830 831 832 833
706 712 718 723 727 732 736 738 740 742 743 745 747 750 755 759 762 765 767 769 773 775 777 780 784 786 789 792 794 797 800 803 806 809 812 817 821 823 824 826 829 831 833
703 710 716 721 726 730 734 737 738 740 741 743 745 748 754 758 762 766 770 773 774 777 780 784 786 789 791 793 797 800 802 804 807 810 812 816 819 821 825 827 830 833 835
701 707 713 718 724 728 731 733 736 739 741 742 745 748 753 755 759 763 767 771 774 777 781 785 788 790 792 795 798 800 801 804 806 808 811 814 818 820 823 826 829 831 833
696 702 707 712 720 723 727 731 734 737 741 743 746 748 752 754 758 763 766 770 773 776 780 782 784 787 789 792 794 797 799 802 803 806 809 812 815 818 820 823 825 827 829
690 696 701 706 712 717 722 726 731 738 740 744 747 750 752 755 759 763 767 770 774 777 778 779 781 783 785 787 790 792 795 798 801 803 806 809 811 814 817 819 821 823 825
684 690 696 702 706 711 716 720 724 728 735 740 744 748 752 756 759 762 766 770 773 775 775 774 776 779 781 784 786 788 790 794 797 800 802 805 807 809 812 814 816 818 820
677 684 690 696 700 705 710 715 718 721 726 731 738 744 749 753 758 761 764 766 766 769 770 770 771 773 776 778 781 783 786 788 791 794 797 800 802 804 806 809 810 814 818
671 675 682 688 694 701 704 708 712 715 720 724 728 734 742 746 749 751 754 758 758 759 761 763 765 767 769 772 775 777 779 782 787 791 793 794 796 798 799 801 803 808 812
662 669 676 681 687 693 697 701 704 708 712 716 720 724 729 735 738 741 745 749 750 750 751 752 755 759 762 764 766 768 772 776 778 778 782 783 784 786 790 792 795 799 805
654 660 670 673 679 685 690 694 698 701 704 708 712 716 722 727 730 732 735 737 740 743 745 746 747 748 751 754 758 761 762 762 764 769 772 774 776 779 782 784 787 791 795
647 652 661 666 671 677 684 687 691 694 697 701 704 708 712 718 721 723 726 729 732 735 737 739 740 742 744 744 745 748 750 752 756 759 761 764 767 772 774 777 781 786 790
642 647 651 656 661 668 675 680 683 688 691 694 697 699 702 708 712 714 716 720 723 725 727 730 732 734 736 738 739 740 742 745 746 749 752 755 758 759 765 769 772 778 783
636 642 647 652 655 660 665 672 676 679 683 687 689 691 694 696 701 704 706 709 712 715 717 719 720 722 725 727 730 731 733 735 738 742 745 750 752 756 759 762 767 771 781
631 634 641 645 650 653 659 664 669 673 675 678 681 684 686 688 689 692 695 698 700 703 706 708 709 711 713 715 718 721 724 727 731 735 738 740 742 744 748 754 761 768 774